| time (UTC) | temp F | wind direction | speed MPH | gust MPH | rain 1hr in | rain 24hr in | rain mn in | humidity % | barometer mb |
| 20260504023056 | 51 | 0 | 0.0 | 0.0 | 0.00 | 0.00 | 0.00 | 83 | 1018.2 |
| 20260504022558 | 51 | 0 | 0.0 | 0.0 | 0.00 | 0.00 | 0.00 | 82 | 1018.2 |
| 20260504022058 | 51 | 0 | 0.0 | 0.0 | 0.00 | 0.00 | 0.00 | 82 | 1018.1 |
| 20260504021558 | 51 | 0 | 0.0 | 0.0 | 0.00 | 0.00 | 0.00 | 81 | 1018.1 |
| 20260504021058 | 52 | 0 | 0.0 | 0.0 | 0.00 | 0.00 | 0.00 | 81 | 1018.2 |
| 20260504020600 | 52 | 0 | 0.0 | 0.0 | 0.00 | 0.00 | 0.00 | 81 | 1017.9 |
| 20260504020110 | 52 | 0 | 0.0 | 0.0 | 0.00 | 0.00 | 0.00 | 80 | 1018.0 |
| 20260504015559 | 52 | 0 | 0.0 | 0.0 | 0.00 | 0.00 | 0.00 | 80 | 1017.8 |
| 20260504015058 | 52 | 0 | 0.0 | 0.0 | 0.00 | 0.00 | 0.00 | 79 | 1017.9 |
| 20260504014557 | 52 | 0 | 0.0 | 0.0 | 0.00 | 0.00 | 0.00 | 79 | 1017.7 |
| 20260504014058 | 53 | 0 | 0.0 | 0.0 | 0.00 | 0.00 | 0.00 | 79 | 1017.8 |
| 20260504013558 | 53 | 0 | 0.0 | 0.0 | 0.00 | 0.00 | 0.00 | 78 | 1017.7 |
| 20260504013058 | 53 | 0 | 0.0 | 0.0 | 0.00 | 0.00 | 0.00 | 77 | 1017.6 |
| 20260504012601 | 54 | 0 | 0.0 | 0.0 | 0.00 | 0.00 | 0.00 | 78 | 1017.5 |
| 20260504012059 | 54 | 0 | 0.0 | 0.0 | 0.00 | 0.00 | 0.00 | 77 | 1017.5 |
| 20260504011556 | 54 | 0 | 0.0 | 0.0 | 0.00 | 0.00 | 0.00 | 76 | 1017.5 |
| 20260504011059 | 54 | 0 | 0.0 | 0.0 | 0.00 | 0.00 | 0.00 | 75 | 1017.5 |
| 20260504010558 | 55 | 0 | 0.0 | 0.0 | 0.00 | 0.00 | 0.00 | 75 | 1017.6 |
| 20260504010057 | 55 | 0 | 0.0 | 0.0 | 0.00 | 0.00 | 0.00 | 74 | 1017.4 |
| 20260504005558 | 55 | 0 | 0.0 | 0.0 | 0.00 | 0.00 | 0.00 | 73 | 1017.4 |
| 20260504005058 | 56 | 0 | 0.0 | 0.0 | 0.00 | 0.00 | 0.00 | 72 | 1017.4 |
| 20260504004558 | 56 | 0 | 0.0 | 0.0 | 0.00 | 0.00 | 0.00 | 71 | 1017.3 |
| 20260504004058 | 57 | 0 | 0.0 | 0.0 | 0.00 | 0.00 | 0.00 | 71 | 1017.4 |
| 20260504003558 | 57 | 0 | 0.0 | 0.0 | 0.00 | 0.00 | 0.00 | 69 | 1017.4 |
| 20260504003057 | 58 | 0 | 0.0 | 0.0 | 0.00 | 0.00 | 0.00 | 68 | 1017.4 |
| 20260504002558 | 58 | 0 | 0.0 | 0.0 | 0.00 | 0.00 | 0.00 | 67 | 1017.3 |
| 20260504002058 | 59 | 0 | 0.0 | 0.0 | 0.00 | 0.00 | 0.00 | 66 | 1017.2 |
| 20260504001601 | 59 | 0 | 0.0 | 0.0 | 0.00 | 0.00 | 0.00 | 64 | 1017.2 |
| 20260504001100 | 60 | 0 | 0.0 | 0.0 | 0.00 | 0.00 | 0.00 | 63 | 1017.2 |
| 20260504000557 | 60 | 0 | 0.0 | 0.0 | 0.00 | 0.00 | 0.00 | 62 | 1017.2 |
| 20260504000101 | 61 | 0 | 0.0 | 1.0 | 0.00 | 0.00 | 0.00 | 62 | 1017.3 |
| 20260503235558 | 62 | 0 | 0.0 | 1.0 | 0.00 | 0.00 | 0.00 | 60 | 1017.2 |
| 20260503235102 | 62 | 0 | 0.0 | 0.0 | 0.00 | 0.00 | 0.00 | 58 | 1017.3 |
| 20260503234624 | 63 | 0 | 0.0 | 3.0 | 0.00 | 0.00 | 0.00 | 56 | 1017.2 |
| 20260503234103 | 64 | 0 | 0.0 | 3.0 | 0.00 | 0.00 | 0.00 | 54 | 1017.2 |
| 20260503233558 | 64 | 0 | 0.0 | 1.0 | 0.00 | 0.00 | 0.00 | 54 | 1017.3 |
| 20260503233103 | 64 | 0 | 0.0 | 0.0 | 0.00 | 0.00 | 0.00 | 52 | 1017.2 |
| 20260503232558 | 65 | 0 | 0.0 | 0.0 | 0.00 | 0.00 | 0.00 | 55 | 1017.2 |
| 20260503232058 | 65 | 0 | 0.0 | 2.0 | 0.00 | 0.00 | 0.00 | 52 | 1017.3 |
| 20260503231557 | 65 | 0 | 0.0 | 3.0 | 0.00 | 0.00 | 0.00 | 49 | 1017.3 |
| 20260503231058 | 66 | 0 | 0.0 | 3.0 | 0.00 | 0.00 | 0.00 | 47 | 1017.3 |
| 20260503230600 | 66 | 0 | 0.0 | 3.0 | 0.00 | 0.00 | 0.00 | 49 | 1017.3 |
| 20260503230058 | 66 | 0 | 0.0 | 3.0 | 0.00 | 0.00 | 0.00 | 45 | 1017.3 |
| 20260503225557 | 66 | 0 | 0.0 | 3.0 | 0.00 | 0.00 | 0.00 | 45 | 1017.4 |
| 20260503225058 | 66 | 0 | 0.0 | 3.0 | 0.00 | 0.00 | 0.00 | 44 | 1017.5 |
| 20260503224557 | 67 | 237 | 0.0 | 5.0 | 0.00 | 0.00 | 0.00 | 42 | 1017.5 |
| 20260503224058 | 67 | 0 | 0.0 | 6.0 | 0.00 | 0.00 | 0.00 | 42 | 1017.5 |
| 20260503223559 | 67 | 0 | 1.0 | 6.0 | 0.00 | 0.00 | 0.00 | 42 | 1017.6 |
| 20260503223059 | 67 | 140 | 0.0 | 5.0 | 0.00 | 0.00 | 0.00 | 42 | 1017.6 |
| 20260503222558 | 67 | 0 | 0.0 | 5.0 | 0.00 | 0.00 | 0.00 | 41 | 1017.6 |
| 20260503222058 | 67 | 0 | 0.0 | 5.0 | 0.00 | 0.00 | 0.00 | 42 | 1017.7 |
| 20260503221601 | 68 | 0 | 0.0 | 4.0 | 0.00 | 0.00 | 0.00 | 41 | 1017.6 |
| 20260503221058 | 68 | 0 | 1.0 | 4.0 | 0.00 | 0.00 | 0.00 | 39 | 1017.6 |
| 20260503220558 | 68 | 0 | 1.0 | 4.0 | 0.00 | 0.00 | 0.00 | 37 | 1017.6 |
| 20260503220056 | 68 | 0 | 0.0 | 7.0 | 0.00 | 0.00 | 0.00 | 39 | 1017.7 |
| 20260503215557 | 69 | 0 | 1.0 | 7.0 | 0.00 | 0.00 | 0.00 | 38 | 1017.7 |
| 20260503215058 | 69 | 232 | 1.0 | 5.0 | 0.00 | 0.00 | 0.00 | 38 | 1017.7 |
| 20260503214556 | 70 | 0 | 0.0 | 5.0 | 0.00 | 0.00 | 0.00 | 37 | 1017.7 |
| 20260503214058 | 70 | 174 | 0.0 | 5.0 | 0.00 | 0.00 | 0.00 | 39 | 1017.7 |
| 20260503213558 | 70 | 0 | 0.0 | 4.0 | 0.00 | 0.00 | 0.00 | 35 | 1017.8 |
| 20260503213059 | 70 | 129 | 0.0 | 4.0 | 0.00 | 0.00 | 0.00 | 37 | 1017.9 |
| 20260503212558 | 70 | 0 | 0.0 | 4.0 | 0.00 | 0.00 | 0.00 | 35 | 1017.9 |
| 20260503212058 | 71 | 61 | 0.0 | 4.0 | 0.00 | 0.00 | 0.00 | 36 | 1018.1 |
| 20260503211559 | 71 | 0 | 0.0 | 4.0 | 0.00 | 0.00 | 0.00 | 33 | 1018.1 |
| 20260503211057 | 71 | 257 | 0.0 | 3.0 | 0.00 | 0.00 | 0.00 | 36 | 1018.2 |
| 20260503210558 | 71 | 346 | 0.0 | 3.0 | 0.00 | 0.00 | 0.00 | 38 | 1018.3 |
| 20260503210100 | 70 | 302 | 0.0 | 4.0 | 0.00 | 0.00 | 0.00 | 38 | 1018.3 |
| 20260503205600 | 70 | 108 | 0.0 | 6.0 | 0.00 | 0.00 | 0.00 | 40 | 1018.4 |
| 20260503205058 | 70 | 55 | 0.0 | 6.0 | 0.00 | 0.00 | 0.00 | 38 | 1018.5 |
| 20260503204559 | 70 | 248 | 1.0 | 6.0 | 0.00 | 0.00 | 0.00 | 38 | 1018.5 |
| 20260503204058 | 70 | 0 | 1.0 | 4.0 | 0.00 | 0.00 | 0.00 | 44 | 1018.5 |
| 20260503203558 | 70 | 129 | 0.0 | 4.0 | 0.00 | 0.00 | 0.00 | 44 | 1018.8 |
| 20260503203059 | 70 | 229 | 0.0 | 6.0 | 0.00 | 0.00 | 0.00 | 46 | 1018.7 |
| 20260503202558 | 69 | 84 | 0.0 | 6.0 | 0.00 | 0.00 | 0.00 | 43 | 1018.8 |
| 20260503202058 | 69 | 0 | 0.0 | 3.0 | 0.00 | 0.00 | 0.00 | 40 | 1018.9 |
| 20260503201558 | 69 | 0 | 0.0 | 3.0 | 0.00 | 0.00 | 0.00 | 44 | 1018.9 |
| 20260503201059 | 69 | 266 | 0.0 | 5.0 | 0.00 | 0.00 | 0.00 | 42 | 1019.1 |
| 20260503200558 | 68 | 0 | 1.0 | 5.0 | 0.00 | 0.00 | 0.00 | 42 | 1019.2 |
| 20260503200058 | 68 | 0 | 0.0 | 4.0 | 0.00 | 0.00 | 0.00 | 47 | 1019.1 |
| 20260503195600 | 68 | 309 | 0.0 | 7.0 | 0.00 | 0.00 | 0.00 | 46 | 1019.3 |
| 20260503195057 | 68 | 0 | 2.0 | 7.0 | 0.00 | 0.00 | 0.00 | 48 | 1019.4 |
| 20260503194600 | 68 | 173 | 0.0 | 6.0 | 0.00 | 0.00 | 0.00 | 43 | 1019.5 |
| 20260503194058 | 68 | 0 | 2.0 | 6.0 | 0.00 | 0.00 | 0.00 | 44 | 1019.6 |
| 20260503193558 | 68 | 71 | 0.0 | 4.0 | 0.00 | 0.00 | 0.00 | 42 | 1019.7 |
| 20260503193059 | 67 | 0 | 0.0 | 5.0 | 0.00 | 0.00 | 0.00 | 42 | 1019.8 |
| 20260503192558 | 68 | 60 | 1.0 | 5.0 | 0.00 | 0.00 | 0.00 | 43 | 1019.8 |
| 20260503192057 | 67 | 0 | 0.0 | 5.0 | 0.00 | 0.00 | 0.00 | 44 | 1020.0 |
| 20260503191600 | 67 | 339 | 1.0 | 5.0 | 0.00 | 0.00 | 0.00 | 41 | 1020.1 |
| 20260503191100 | 66 | 0 | 0.0 | 4.0 | 0.00 | 0.00 | 0.00 | 46 | 1020.1 |
| 20260503190559 | 66 | 0 | 1.0 | 4.0 | 0.00 | 0.00 | 0.00 | 47 | 1020.2 |
| 20260503190056 | 66 | 310 | 1.0 | 4.0 | 0.00 | 0.00 | 0.00 | 43 | 1020.4 |
| 20260503185558 | 66 | 236 | 0.0 | 3.0 | 0.00 | 0.00 | 0.00 | 51 | 1020.3 |
| 20260503185101 | 66 | 216 | 0.0 | 3.0 | 0.00 | 0.00 | 0.00 | 46 | 1020.4 |
| 20260503184559 | 66 | 0 | 0.0 | 5.0 | 0.00 | 0.00 | 0.00 | 45 | 1020.5 |
| 20260503184058 | 66 | 196 | 0.0 | 6.0 | 0.00 | 0.00 | 0.00 | 48 | 1020.5 |
| 20260503183558 | 65 | 156 | 1.0 | 6.0 | 0.00 | 0.00 | 0.00 | 42 | 1020.4 |
| 20260503183100 | 65 | 5 | 1.0 | 6.0 | 0.00 | 0.00 | 0.00 | 46 | 1020.5 |
| 20260503182557 | 65 | 225 | 1.0 | 5.0 | 0.00 | 0.00 | 0.00 | 45 | 1020.5 |
| 20260503182058 | 65 | 107 | 0.0 | 4.0 | 0.00 | 0.00 | 0.00 | 43 | 1020.7 |
| 20260503181558 | 65 | 0 | 0.0 | 4.0 | 0.00 | 0.00 | 0.00 | 43 | 1020.7 |
| 20260503181058 | 64 | 0 | 1.0 | 4.0 | 0.00 | 0.00 | 0.00 | 48 | 1020.7 |
| 20260503180558 | 64 | 219 | 0.0 | 4.0 | 0.00 | 0.00 | 0.00 | 45 | 1020.8 |
| 20260503180105 | 63 | 0 | 0.0 | 4.0 | 0.00 | 0.00 | 0.00 | 46 | 1020.8 |
| 20260503175558 | 63 | 246 | 1.0 | 4.0 | 0.00 | 0.00 | 0.00 | 45 | 1020.9 |
| 20260503175058 | 63 | 193 | 0.0 | 3.0 | 0.00 | 0.00 | 0.00 | 50 | 1020.9 |
| 20260503174601 | 63 | 84 | 0.0 | 3.0 | 0.00 | 0.00 | 0.00 | 47 | 1021.0 |
| 20260503174058 | 63 | 155 | 0.0 | 5.0 | 0.00 | 0.00 | 0.00 | 51 | 1021.1 |
| 20260503173558 | 62 | 74 | 1.0 | 8.0 | 0.00 | 0.00 | 0.00 | 49 | 1021.3 |
| 20260503173109 | 62 | 159 | 1.0 | 8.0 | 0.00 | 0.00 | 0.00 | 50 | 1021.3 |
| 20260503172600 | 62 | 150 | 1.0 | 5.0 | 0.00 | 0.00 | 0.00 | 49 | 1021.3 |
| 20260503172058 | 62 | 0 | 1.0 | 4.0 | 0.00 | 0.00 | 0.00 | 50 | 1021.4 |
| 20260503171559 | 62 | 211 | 0.0 | 3.0 | 0.00 | 0.00 | 0.00 | 52 | 1021.3 |
| 20260503171058 | 62 | 192 | 0.0 | 7.0 | 0.00 | 0.00 | 0.00 | 50 | 1021.5 |
| 20260503170558 | 61 | 0 | 2.0 | 7.0 | 0.00 | 0.00 | 0.00 | 50 | 1021.5 |
| 20260503150557 | 57 | 0 | 0.0 | 3.0 | 0.00 | 0.00 | 0.00 | 64 | 1022.4 |
| 20260503140109 | 52 | 0 | 0.0 | 4.0 | 0.00 | 0.00 | 0.00 | 81 | 1022.3 |
| 20260503131058 | 46 | 0 | 0.0 | 1.0 | 0.00 | 0.00 | 0.00 | 96 | 1022.1 |
| 20260503130613 | 45 | 0 | 0.0 | 2.0 | 0.00 | 0.00 | 0.00 | 97 | 1022.1 |
| 20260503110558 | 38 | 0 | 0.0 | 0.0 | 0.00 | 0.00 | 0.00 | 95 | 1021.3 |
| 20260503110110 | 38 | 0 | 0.0 | 0.0 | 0.00 | 0.00 | 0.00 | 95 | 1021.3 |
| 20260503081600 | 41 | 0 | 0.0 | 0.0 | 0.00 | 0.00 | 0.00 | 93 | 1019.9 |
| 20260503081059 | 41 | 0 | 0.0 | 0.0 | 0.00 | 0.00 | 0.00 | 93 | 1019.8 |
| 20260503080559 | 41 | 0 | 0.0 | 0.0 | 0.00 | 0.00 | 0.00 | 93 | 1019.8 |
| 20260503072601 | 42 | 0 | 0.0 | 0.0 | 0.00 | 0.00 | 0.00 | 93 | 1019.5 |
| 20260503072058 | 42 | 0 | 0.0 | 0.0 | 0.00 | 0.00 | 0.00 | 93 | 1019.6 |
| 20260503071616 | 42 | 0 | 0.0 | 0.0 | 0.00 | 0.00 | 0.00 | 92 | 1019.4 |
| 20260503071057 | 42 | 0 | 0.0 | 0.0 | 0.00 | 0.00 | 0.00 | 92 | 1019.5 |
| 20260503070601 | 42 | 0 | 0.0 | 0.0 | 0.00 | 0.00 | 0.00 | 92 | 1019.4 |
| 20260503070110 | 42 | 0 | 0.0 | 0.0 | 0.00 | 0.00 | 0.00 | 92 | 1019.3 |
| 20260503060132 | 44 | 0 | 0.0 | 0.0 | 0.00 | 0.00 | 0.00 | 89 | 1019.3 |
| 20260503055057 | 44 | 0 | 0.0 | 0.0 | 0.00 | 0.00 | 0.00 | 88 | 1019.2 |
| 20260503054601 | 44 | 0 | 0.0 | 0.0 | 0.00 | 0.00 | 0.00 | 88 | 1019.1 |
| 20260503054057 | 44 | 0 | 0.0 | 0.0 | 0.00 | 0.00 | 0.00 | 87 | 1019.2 |
| 20260503053557 | 44 | 0 | 0.0 | 0.0 | 0.00 | 0.00 | 0.00 | 87 | 1019.2 |
| 20260503053100 | 45 | 0 | 0.0 | 0.0 | 0.00 | 0.00 | 0.00 | 87 | 1019.3 |
| 20260503052558 | 45 | 0 | 0.0 | 0.0 | 0.00 | 0.00 | 0.00 | 86 | 1019.2 |
| 20260503052058 | 45 | 0 | 0.0 | 0.0 | 0.00 | 0.00 | 0.00 | 86 | 1019.3 |
| 20260503051600 | 45 | 0 | 0.0 | 0.0 | 0.00 | 0.00 | 0.00 | 85 | 1019.1 |
| 20260503051101 | 45 | 0 | 0.0 | 0.0 | 0.00 | 0.00 | 0.00 | 85 | 1019.1 |
| 20260503050600 | 46 | 0 | 0.0 | 0.0 | 0.00 | 0.00 | 0.00 | 84 | 1019.1 |
| 20260503050100 | 46 | 0 | 0.0 | 0.0 | 0.00 | 0.00 | 0.00 | 84 | 1019.0 |
| 20260503045558 | 46 | 0 | 0.0 | 0.0 | 0.00 | 0.00 | 0.00 | 83 | 1018.9 |
| 20260503045057 | 46 | 0 | 0.0 | 0.0 | 0.00 | 0.00 | 0.00 | 83 | 1018.9 |
| 20260503044559 | 47 | 0 | 0.0 | 0.0 | 0.00 | 0.00 | 0.00 | 82 | 1018.8 |
| 20260503044100 | 47 | 0 | 0.0 | 0.0 | 0.00 | 0.00 | 0.00 | 81 | 1018.9 |
| 20260503043600 | 47 | 0 | 0.0 | 0.0 | 0.00 | 0.00 | 0.00 | 81 | 1018.8 |
| 20260503043106 | 48 | 0 | 0.0 | 0.0 | 0.00 | 0.00 | 0.00 | 80 | 1018.8 |
| 20260503042602 | 48 | 0 | 0.0 | 0.0 | 0.00 | 0.00 | 0.00 | 79 | 1018.7 |
| 20260503042059 | 48 | 0 | 0.0 | 0.0 | 0.00 | 0.00 | 0.00 | 78 | 1018.7 |
| 20260503041558 | 49 | 0 | 0.0 | 0.0 | 0.00 | 0.00 | 0.00 | 77 | 1018.8 |
| 20260503041100 | 49 | 0 | 0.0 | 0.0 | 0.00 | 0.00 | 0.00 | 77 | 1018.8 |
| 20260503040601 | 50 | 0 | 0.0 | 0.0 | 0.00 | 0.00 | 0.00 | 76 | 1018.7 |
| 20260503040121 | 50 | 0 | 0.0 | 0.0 | 0.00 | 0.00 | 0.00 | 75 | 1018.7 |
| 20260503035558 | 51 | 0 | 0.0 | 0.0 | 0.00 | 0.00 | 0.00 | 74 | 1018.7 |
| 20260503035057 | 51 | 0 | 0.0 | 0.0 | 0.00 | 0.00 | 0.00 | 73 | 1018.6 |
| 20260503034600 | 52 | 0 | 0.0 | 0.0 | 0.00 | 0.00 | 0.00 | 71 | 1018.7 |
| 20260503034058 | 52 | 0 | 0.0 | 0.0 | 0.00 | 0.00 | 0.00 | 70 | 1018.7 |
| 20260503033557 | 52 | 0 | 0.0 | 0.0 | 0.00 | 0.00 | 0.00 | 69 | 1018.8 |
| 20260503033057 | 53 | 0 | 0.0 | 0.0 | 0.00 | 0.00 | 0.00 | 68 | 1018.6 |
| 20260503032557 | 53 | 0 | 0.0 | 0.0 | 0.00 | 0.00 | 0.00 | 67 | 1018.6 |
| 20260503032058 | 54 | 0 | 0.0 | 2.0 | 0.00 | 0.00 | 0.00 | 65 | 1018.5 |
| 20260503031607 | 54 | 0 | 0.0 | 4.0 | 0.00 | 0.00 | 0.00 | 65 | 1018.4 |
| 20260503031058 | 54 | 0 | 0.0 | 4.0 | 0.00 | 0.00 | 0.00 | 64 | 1018.4 |
| 20260503030558 | 55 | 0 | 1.0 | 4.0 | 0.00 | 0.00 | 0.00 | 63 | 1018.5 |
| 20260503030057 | 55 | 0 | 0.0 | 4.0 | 0.00 | 0.00 | 0.00 | 62 | 1018.5 |
| 20260503025557 | 55 | 0 | 1.0 | 4.0 | 0.00 | 0.00 | 0.00 | 62 | 1018.4 |
| 20260503025056 | 55 | 0 | 0.0 | 4.0 | 0.00 | 0.00 | 0.00 | 60 | 1018.4 |
| 20260503024557 | 55 | 0 | 0.0 | 4.0 | 0.00 | 0.00 | 0.00 | 60 | 1018.5 |
| 20260503024100 | 56 | 236 | 0.0 | 3.0 | 0.00 | 0.00 | 0.00 | 60 | 1018.4 |
| 20260503023559 | 56 | 162 | 0.0 | 3.0 | 0.00 | 0.00 | 0.00 | 59 | 1018.3 |